Weather in Kochkino

Russia / Tula Oblast     53°03′33″N   37°53′30″E
temp.,
°C
wind,
m/s
gust,
m/s
humid.,
%
clouds,
%
prec.,
mm/h
press.,
hPa
HPBL,
m
8 march, mon
mon800:00−5w61478100 0.8 1002504
03:00−6wsw5138772 0.8 1002280
06:00−6wsw6148970 0.1 1002383
09:00−5w7139175 0.1 1002711
12:00−4w7118699 0.0 1004992
15:00−4wnw6885100 0.2 10051058
18:00−7wnw239196 0.1 100724
21:00−10nnw228891 0.1 100921
9 march, tue
tue900:00−13nw229129 0.0 101020
03:00−14nnw239425 0.0 101121
06:00−13nnw3396100 0.0 101272
09:00−12n469596 0.1 1014262
12:00−12nnw469177 0.0 1016419
15:00−11nnw478887 0.0 1018631
18:00−14nw339286 0.0 101828
21:00−15nw349690 0.0 102178
10 march, wed
wed1000:00−18nnw459451 0.0 102282
03:00−20nw339970 0.0 102436
06:00−22nw349870 0.0 102646
09:00−21nnw369643 0.0 1027211
12:00−18nnw35900 0.0 1028344
15:00−17nnw358818 0.0 1028439
18:00−20n239435 0.0 102920
21:00−23n239517 0.0 103120
11 march, thu
thu1100:00−24n22920 0.0 103220
03:00−24nw22900 0.0 103320
06:00−24nw22880 0.0 103320
09:00−20nw24876 0.0 103499
12:00−15nw23820 0.0 1034245
15:00−13wnw23830 0.0 1033325
18:00−17w12900 0.0 103320
21:00−19sw12900 0.0 103320
12 march, fri
fri1200:00−20ssw23890 0.0 103320
03:00−20s34880 0.0 103332
06:00−20s45860 0.0 103278
09:00−16s6138519 0.0 1030288
12:00−10s81376100 0.0 1028535
15:00−8s81476100 0.0 1026638
18:00−8s91873100 0.0 1023667
21:00−8s91879100 0.1 1022779